Hourly Weather Lugovo

Today, 13 May, Thursday

Time Temperature Precipitation Wind Pressure Humidity
00:00 +13°C° 0.1 mm 4 mps 740 mmHg 92%
01:00 +12°C° 0.1 mm 4 mps 739 mmHg 93%
02:00 +12°C° 0 mm 4 mps 739 mmHg 95%
03:00 +11°C° 0 mm 4 mps 739 mmHg 94%
04:00 +10°C° 0 mm 4 mps 740 mmHg 93%
05:00 +8°C° 0 mm 4 mps 740 mmHg 92%
06:00 +10°C° 0 mm 4 mps 740 mmHg 85%
07:00 +11°C° 0 mm 4 mps 740 mmHg 77%
08:00 +12°C° 0 mm 4 mps 740 mmHg 70%
09:00 +13°C° 0 mm 4 mps 740 mmHg 64%
10:00 +14°C° 0 mm 4 mps 740 mmHg 57%
11:00 +17°C° 0 mm 4 mps 739 mmHg 51%
12:00 +17°C° 0.1 mm 4 mps 739 mmHg 53%
13:00 +17°C° 0.1 mm 4 mps 739 mmHg 56%
14:00 +17°C° 0.1 mm 4 mps 738 mmHg 58%
15:00 +14°C° 0.1 mm 4 mps 738 mmHg 64%
16:00 +13°C° 0.1 mm 4 mps 738 mmHg 70%
17:00 +12°C° 0.1 mm 4 mps 737 mmHg 76%
18:00 +11°C° 0 mm 3 mps 737 mmHg 81%
19:00 +10°C° 0 mm 3 mps 737 mmHg 86%
20:00 +9°C° 0 mm 2 mps 737 mmHg 91%
21:00 +9°C° 0 mm 2 mps 737 mmHg 92%
22:00 +8°C° 0 mm 3 mps 737 mmHg 94%
23:00 +8°C° 0 mm 3 mps 737 mmHg 95%

Tomorrow, 14 May, Friday

Time Temperature Precipitation Wind Pressure Humidity
00:00 +7°C° 0 mm 3 mps 737 mmHg 96%
01:00 +7°C° 0 mm 3 mps 737 mmHg 97%
02:00 +6°C° 0 mm 2 mps 737 mmHg 97%
03:00 +7°C° 0 mm 2 mps 737 mmHg 96%
04:00 +7°C° 0 mm 3 mps 737 mmHg 94%
05:00 +7°C° 0 mm 3 mps 738 mmHg 92%
06:00 +8°C° 0 mm 3 mps 738 mmHg 88%
07:00 +8°C° 0 mm 4 mps 738 mmHg 84%
08:00 +10°C° 0 mm 4 mps 738 mmHg 80%
09:00 +12°C° 0 mm 4 mps 738 mmHg 75%
10:00 +13°C° 0 mm 4 mps 738 mmHg 69%
11:00 +15°C° 0 mm 5 mps 738 mmHg 64%
12:00 +15°C° 0.1 mm 4 mps 738 mmHg 63%
13:00 +17°C° 0.1 mm 4 mps 737 mmHg 63%
14:00 +17°C° 0.1 mm 4 mps 737 mmHg 62%
15:00 +17°C° 0.1 mm 4 mps 737 mmHg 63%
16:00 +17°C° 0.1 mm 4 mps 737 mmHg 64%
17:00 +17°C° 0.1 mm 3 mps 736 mmHg 65%
18:00 +16°C° 0 mm 3 mps 736 mmHg 74%
19:00 +14°C° 0 mm 2 mps 736 mmHg 83%
20:00 +13°C° 0 mm 2 mps 735 mmHg 91%
21:00 +12°C° 0 mm 2 mps 735 mmHg 93%
22:00 +12°C° 0 mm 2 mps 735 mmHg 94%
23:00 +10°C° 0 mm 2 mps 734 mmHg 95%

Day after tomorrow, 15 May, Saturday

Time Temperature Precipitation Wind Pressure Humidity
00:00 +10°C° 0 mm 2 mps 734 mmHg 96%
01:00 +10°C° 0 mm 2 mps 734 mmHg 97%
02:00 +10°C° 0 mm 2 mps 733 mmHg 98%
03:00 +10°C° 0.2 mm 2 mps 733 mmHg 98%
04:00 +12°C° 0.2 mm 2 mps 733 mmHg 98%
05:00 +12°C° 0.2 mm 1 mps 733 mmHg 98%
06:00 +13°C° 0.2 mm 1 mps 733 mmHg 96%
07:00 +14°C° 0.2 mm 2 mps 733 mmHg 93%
08:00 +15°C° 0.2 mm 2 mps 733 mmHg 91%
09:00 +15°C° 0.3 mm 2 mps 733 mmHg 88%
10:00 +16°C° 0.3 mm 2 mps 733 mmHg 86%
11:00 +16°C° 0.3 mm 2 mps 733 mmHg 84%
12:00 +17°C° 0.4 mm 2 mps 733 mmHg 80%
13:00 +18°C° 0.4 mm 2 mps 732 mmHg 75%
14:00 +20°C° 0.4 mm 1 mps 732 mmHg 70%
15:00 +19°C° 1.2 mm 2 mps 732 mmHg 73%
16:00 +19°C° 1.2 mm 2 mps 732 mmHg 77%
17:00 +18°C° 1.2 mm 2 mps 732 mmHg 80%
18:00 +17°C° 1.5 mm 2 mps 732 mmHg 85%
19:00 +15°C° 1.5 mm 2 mps 732 mmHg 90%
20:00 +14°C° 1.5 mm 2 mps 733 mmHg 94%
21:00 +13°C° 0.2 mm 2 mps 733 mmHg 95%
22:00 +13°C° 0.2 mm 2 mps 733 mmHg 96%
23:00 +12°C° 0.2 mm 2 mps 734 mmHg 96%

16 May, Sunday

Time Temperature Precipitation Wind Pressure Humidity
00:00 +12°C° 0 mm 2 mps 734 mmHg 96%
01:00 +11°C° 0 mm 1 mps 735 mmHg 96%
02:00 +11°C° 0 mm 1 mps 735 mmHg 96%
03:00 +11°C° 0 mm 1 mps 736 mmHg 96%
04:00 +11°C° 0 mm 1 mps 736 mmHg 95%
05:00 +10°C° 0 mm 0 mps 736 mmHg 95%
06:00 +12°C° 0 mm 0 mps 737 mmHg 89%
07:00 +13°C° 0 mm 0 mps 737 mmHg 83%
08:00 +15°C° 0 mm 0 mps 737 mmHg 77%
09:00 +18°C° 0 mm 1 mps 737 mmHg 69%
10:00 +20°C° 0 mm 1 mps 738 mmHg 61%
11:00 +21°C° 0 mm 1 mps 738 mmHg 53%
12:00 +22°C° 0 mm 1 mps 738 mmHg 49%
13:00 +22°C° 0 mm 1 mps 738 mmHg 46%
14:00 +23°C° 0 mm 1 mps 738 mmHg 42%
15:00 +22°C° 0 mm 1 mps 738 mmHg 48%
16:00 +21°C° 0 mm 1 mps 738 mmHg 54%
17:00 +20°C° 0 mm 1 mps 738 mmHg 60%
18:00 +19°C° 0 mm 1 mps 738 mmHg 64%
19:00 +18°C° 0 mm 1 mps 738 mmHg 69%
20:00 +15°C° 0 mm 1 mps 738 mmHg 73%
21:00 +15°C° 0 mm 1 mps 738 mmHg 78%
22:00 +14°C° 0 mm 1 mps 738 mmHg 82%
23:00 +13°C° 0 mm 1 mps 738 mmHg 87%

17 May, Monday

Time Temperature Precipitation Wind Pressure Humidity
00:00 +12°C° 0 mm 1 mps 738 mmHg 89%
01:00 +12°C° 0 mm 2 mps 738 mmHg 92%
02:00 +12°C° 0 mm 2 mps 738 mmHg 94%
03:00 +12°C° 0 mm 2 mps 738 mmHg 93%
04:00 +13°C° 0 mm 2 mps 738 mmHg 93%
05:00 +13°C° 0 mm 2 mps 738 mmHg 92%
06:00 +14°C° 0 mm 3 mps 738 mmHg 85%
07:00 +16°C° 0 mm 3 mps 738 mmHg 77%
08:00 +18°C° 0 mm 4 mps 738 mmHg 70%
09:00 +19°C° 0 mm 4 mps 738 mmHg 65%
10:00 +21°C° 0 mm 4 mps 738 mmHg 60%
11:00 +22°C° 0 mm 4 mps 738 mmHg 54%
12:00 +22°C° 0 mm 4 mps 737 mmHg 53%
13:00 +23°C° 0 mm 4 mps 737 mmHg 51%
14:00 +23°C° 0 mm 4 mps 737 mmHg 50%
15:00 +21°C° 0.6 mm 4 mps 736 mmHg 61%
16:00 +20°C° 0.6 mm 4 mps 736 mmHg 73%
17:00 +18°C° 0.6 mm 4 mps 735 mmHg 84%
18:00 +18°C° 1.9 mm 3 mps 735 mmHg 88%
19:00 +17°C° 1.9 mm 3 mps 734 mmHg 92%
20:00 +17°C° 1.9 mm 2 mps 734 mmHg 95%
21:00 +16°C° 1 mm 2 mps 734 mmHg 96%
22:00 +16°C° 1 mm 2 mps 734 mmHg 96%
23:00 +16°C° 1 mm 2 mps 734 mmHg 97%

18 May, Tuesday

Time Temperature Precipitation Wind Pressure Humidity
00:00 +15°C° 0.2 mm 2 mps 733 mmHg 97%
01:00 +15°C° 0.2 mm 1 mps 733 mmHg 97%
02:00 +14°C° 0.2 mm 1 mps 733 mmHg 98%
03:00 +14°C° 0.5 mm 1 mps 733 mmHg 98%
04:00 +14°C° 0.5 mm 1 mps 733 mmHg 98%
05:00 +14°C° 0.5 mm 1 mps 733 mmHg 98%
06:00 +15°C° 0.1 mm 1 mps 734 mmHg 96%
07:00 +15°C° 0.1 mm 1 mps 734 mmHg 94%
08:00 +16°C° 0.1 mm 2 mps 734 mmHg 92%
09:00 +16°C° 0.1 mm 2 mps 734 mmHg 88%
10:00 +18°C° 0.1 mm 1 mps 735 mmHg 85%
11:00 +18°C° 0.1 mm 1 mps 735 mmHg 82%
12:00 +18°C° 0.3 mm 1 mps 735 mmHg 82%
13:00 +19°C° 0.3 mm 1 mps 735 mmHg 82%
14:00 +19°C° 0.3 mm 1 mps 735 mmHg 81%
15:00 +19°C° 0.5 mm 1 mps 735 mmHg 82%
16:00 +17°C° 0.5 mm 0 mps 735 mmHg 83%
17:00 +17°C° 0.5 mm 0 mps 735 mmHg 84%
18:00 +16°C° 0.1 mm 0 mps 735 mmHg 87%
19:00 +15°C° 0.1 mm 0 mps 735 mmHg 91%
20:00 +14°C° 0.1 mm 0 mps 735 mmHg 95%
21:00 +14°C° 0 mm 1 mps 736 mmHg 95%
22:00 +14°C° 0 mm 1 mps 736 mmHg 96%
23:00 +13°C° 0 mm 1 mps 736 mmHg 97%
Show more

We Need Your Consent

Meteoprog and our Service Providers may store and access personal data such as cookies, device identifiers or other similar technologies on your device and process such data to personalise content and ads, as well as provide social media features and to analyse the traffic.

  • Store and/or access information on your device

    Cookies, device identifiers or other information can be stored or accessed on your device for the purposes indicated above.

  • Personalised ads and content, ad and content measurement, audience insights, and products development

    Ads and content can be personalised based on a profile. More data can be added to better personalise ads and content. Ad and content performance can be measured. Insights about the audience who saw the ads and content can be derived. Such data can be used to develop or improve user’s experience, systems and software.

By clicking ‘I Agree’ you will allow the use of indicated cookies, device identifiers, web beacons or other similar technologies. Your settings can be changed in the browser on your device.

For certain purposes, legitimate interests may be relied on, rather than consent. You can read more about this in our Privacy and Cookie Policy.